Flag for Luxembourg Weather past 2 weeks in Differdange, Luxembourg

Now
64 °F

Passing clouds.


Feels Like: 64 °F
Forecast: 54 / 72 °F
Wind: 10 mph from North

Location: Luxembourg Airport

Current Time: Jul 30, 2014 at 7:26:47 AM

Latest Report: Jul 30, 2014 at 6:50 AM


Visibility: 5 mi

Pressure: 29.86 "Hg

Humidity: 94%

Dew point: 63 °F

Location of DifferdangeLocation

Historic Weather in Differdange — Graph

°F

Differdange temperature yesterday

Maximum temperature yesterday: 77 °F (at 4:20 PM)
Minimum temperature yesterday: 61 °F (at 12:20 AM)
Average temperature yesterday: 65 °F

Past Weeks' High & Low Weather Summary

 TemperatureHumidityPressure
High90 °F (Jul 18, 3:50 PM)100% (Jul 22, 5:50 AM)30.21 "Hg (Jul 22, 5:50 AM)
Low55 °F (Jul 15, 6:20 AM)29% (Jul 19, 2:20 PM)29.80 "Hg (Jul 29, 7:20 AM)
Average70 °F67%29.99 "Hg
* Reported Jul 15 6:20 AM — Jul 30 6:20 AM, Differdange, Weather by CustomWeather, © 2014

Note: Actual official high and low records may vary slightly from our data, if they occured in-between our weather recording intervals... More about our weather records

Advertising

Differdange weather history for previous 24 hours

 ConditionsComfort  
Time TempWeatherWind HumidityBarometerVisibility
6:20 AM
Jul 30
63 °FPassing clouds.8 mph100%29.83 "Hg5 mi
5:50 AM63 °FLight rain. Passing clouds.7 mph100%29.83 "Hg4 mi
5:20 AM63 °FLight rain. Partly cloudy.7 mph100%29.83 "Hg5 mi
4:50 AM63 °FRain. Partly cloudy.8 mph100%29.83 "Hg5 mi
4:20 AM63 °FMild.7 mph100%29.83 "HgN/A
3:50 AM63 °FMild.7 mph100%29.83 "HgN/A
3:20 AM63 °FMild.7 mph94%29.83 "HgN/A
2:50 AM63 °FMild.9 mph100%29.83 "HgN/A
2:20 AM64 °FMild.10 mph94%29.83 "HgN/A
1:50 AM64 °FLight rain. Passing clouds.9 mph94%29.83 "Hg4 mi
1:20 AM64 °FPassing clouds.9 mph94%29.83 "Hg4 mi
12:50 AM64 °FPassing clouds.14 mph94%29.83 "Hg4 mi
12:20 AM64 °FPassing clouds.14 mph94%29.83 "Hg4 mi
11:50 PM
Jul 29
64 °FPassing clouds.14 mph94%29.83 "Hg4 mi
11:20 PM64 °FPassing clouds.12 mph94%29.83 "Hg4 mi
10:50 PM64 °FPassing clouds.9 mph94%29.83 "Hg4 mi
10:20 PM64 °FScattered clouds.7 mph94%29.83 "Hg4 mi
9:50 PM64 °FThunderstorms. Fog.6 mph94%29.83 "Hg2 mi
9:20 PM66 °FThunderstorms. Partly sunny.9 mph94%29.83 "HgN/A
8:50 PM66 °FScattered clouds.5 mph88%29.83 "HgN/A
8:20 PM66 °FScattered clouds.6 mph88%29.83 "HgN/A
7:50 PM66 °FSprinkles. Partly sunny.5 mph94%29.83 "HgN/A
7:20 PM66 °FScattered clouds.8 mph94%29.83 "HgN/A
6:50 PM66 °FThunderstorms. Partly sunny.3 mph94%29.83 "HgN/A
6:20 PM70 °FThunderstorms. Broken clouds.10 mph83%29.80 "HgN/A
5:50 PM75 °FScattered clouds.3 mph69%29.80 "HgN/A
5:20 PM75 °FSprinkles. Scattered clouds.6 mph69%29.80 "HgN/A
4:50 PM75 °FScattered clouds.8 mph65%29.80 "HgN/A
4:20 PM77 °FScattered clouds.7 mph65%29.80 "HgN/A
3:50 PM73 °FScattered clouds.7 mph69%29.80 "HgN/A
3:20 PM73 °FMild.7 mph69%29.83 "HgN/A
2:50 PM72 °FBroken clouds.9 mph73%29.83 "HgN/A
2:20 PM72 °FBroken clouds.9 mph78%29.83 "HgN/A
1:50 PM68 °FPartly sunny.8 mph88%29.83 "HgN/A
1:20 PM68 °FPartly sunny.8 mph83%29.83 "Hg5 mi
12:50 PM68 °FPartly sunny.10 mph88%29.83 "Hg4 mi
12:20 PM68 °FPartly sunny.8 mph83%29.83 "Hg4 mi
11:50 AM66 °FPartly sunny.9 mph88%29.83 "Hg4 mi
11:20 AM66 °FPartly sunny.9 mph88%29.83 "Hg4 mi
10:50 AM66 °FScattered clouds.9 mph88%29.83 "Hg2 mi
10:20 AM64 °FPartly sunny.10 mph94%29.83 "Hg2 mi
9:50 AM64 °FLight rain. Partly sunny.10 mph94%29.83 "Hg2 mi
9:20 AM63 °FPartly sunny.9 mph94%29.83 "Hg2 mi
8:50 AM63 °FPartly sunny.10 mph94%29.83 "Hg2 mi
8:20 AM63 °FFog.12 mph94%29.83 "Hg2 mi
7:50 AM61 °FBroken clouds.10 mph100%29.83 "Hg2 mi
7:20 AM61 °FSprinkles. Fog.10 mph94%29.80 "Hg2 mi
Weather by CustomWeather, © 2014

See weather overviewHow to use our weather pages